Home > Weather > Chaguanas > Past weeks

Flag for Trinidad and Tobago Past Weather in Chaguanas, Trinidad and Tobago — Yesterday and Last 2 Weeks

Now
81 °F

Passing clouds.


Feels Like: 87 °F
Forecast: N/A
Wind: 3 mph from Southeast

Location: Piarco International Airport - Trinidad

Current Time: Aug 27, 2016 at 4:52:22 PM

Latest Report: Aug 27, 2016 at 4:00 PM


Visibility: N/A

Pressure: 29.86 "Hg

Humidity: 89%

Dew Point: 77 °F

Location of ChaguanasLocation

Past Weather in Chaguanas — Graph

°F

Chaguanas Temperature Yesterday

Maximum temperature yesterday: 91 °F (at 4:00 PM)
Minimum temperature yesterday: 77 °F (at 3:00 AM)
Average temperature yesterday: 82 °F

High & Low Weather Summary for the Past Weeks

 TemperatureHumidityPressure
High95 °F (Aug 23, 1:00 PM)100% (Aug 13, 12:00 AM)29.98 "Hg (Aug 13, 12:00 AM)
Low73 °F (Aug 14, 4:00 AM)49% (Aug 23, 11:00 AM)29.80 "Hg (Aug 24, 4:00 PM)
Average82 °F80%29.91 "Hg
* Reported Aug 12 3:00 PM — Aug 27 3:00 PM, Chaguanas, Weather by CustomWeather, © 2016

Note: Actual official high and low records may vary slightly from our data, if they occured in-between our weather recording intervals... More about our weather records

Advertising

Chaguanas Weather History for the Previous 24 Hours

Scroll right to see more
 ConditionsComfort  
Time TempWeatherWind HumidityBarometerVisibility
3:00 PM
Sat, Aug 27
81 °FPassing clouds.5 mph79%29.86 "HgN/A
2:00 PM77 °FPassing clouds.2 mph94%29.89 "HgN/A
1:40 PM77 °FScattered clouds.2 mph94%29.92 "HgN/A
1:00 PM75 °FMild.8 mph100%29.95 "Hg4 mi
12:45 PM75 °FThunderstorms. Broken clouds.12 mph94%29.95 "Hg1 mi
12:00 PM88 °FWarm.23 mph66%29.92 "Hg2 mi
11:00 AM91 °FScattered showers. Passing clouds.16 mph59%29.92 "HgN/A
10:00 AM91 °FScattered showers. Partly sunny.8 mph59%29.95 "HgN/A
9:00 AM88 °FPassing clouds.6 mph70%29.95 "HgN/A
7:00 AM79 °FPassing clouds.No wind89%29.92 "HgN/A
6:00 AM75 °FPassing clouds.No wind100%29.92 "HgN/A
5:00 AM77 °FClear.No wind94%29.89 "Hg10 mi
4:00 AM77 °FClear.No wind94%29.89 "Hg10 mi
3:00 AM77 °FPassing clouds.No wind94%29.89 "HgN/A
2:00 AM77 °FPassing clouds.No wind94%29.89 "HgN/A
1:00 AM79 °FPassing clouds.No wind89%29.89 "HgN/A
12:00 AM79 °FPassing clouds.No wind89%29.92 "HgN/A
11:00 PM
Fri, Aug 26
79 °FPassing clouds.No wind89%29.92 "HgN/A
10:00 PM81 °FPassing clouds.No wind84%29.92 "HgN/A
9:00 PM81 °FPassing clouds.No wind84%29.89 "HgN/A
8:00 PM81 °FPassing clouds.No wind84%29.89 "HgN/A
7:00 PM82 °FPassing clouds.No wind84%29.86 "HgN/A
6:00 PM86 °FPassing clouds.7 mph70%29.86 "HgN/A
5:00 PM86 °FPassing clouds.5 mph70%29.86 "HgN/A
4:00 PM91 °FPassing clouds.13 mph63%29.83 "HgN/A
Weather by CustomWeather, © 2016

See weather overviewHow to use our weather pages